Regional Weather Roundup
Issued by NWS Sioux Falls, SD

Home | Current Version | Previous Version | Text Only | Print | Product List | Glossary Off
Versions: 1 2 3 4 5 6 7 8 9 10 11 12 13 14 15 16 17 18 19 20 21 22 23 24 25 26 27 28 29 30 31 32 33 34 35 36 37 38 39 40 41 42 43 44 45 46 47 48 49 50

000
ASUS43 KFSD 060702
RWRFSD

WEATHER ROUNDUP FOR SE SOUTH DAKOTA/SW MINNESOTA/NW IOWA
NATIONAL WEATHER SERVICE SIOUX FALLS SD
200 AM CDT WED MAY 06 2015

NOTE: "FAIR" INDICATES FEW OR NO CLOUDS BELOW 12,000 FEET WITH NO
SIGNIFICANT WEATHER AND OR OBSTRUCTIONS TO VISIBILITY.


SDZ038>040-050-052>070-060800-
SOUTHEAST SOUTH DAKOTA

CITY           SKY/WX    TMP DP  RH WIND       PRES   REMARKS
BROOKINGS      CLOUDY    59  57  94 SE22      29.99S
CHAMBERLAIN    NOT AVBL
HURON          CLOUDY    60  58  92 SE9       29.90F
MADISON        CLOUDY    59  59 100 SE18      29.96F FOG
MITCHELL       CLOUDY    63  60  90 SE14      29.91S
SIOUX FALLS    CLOUDY    62  59  90 E15G25    29.95F
WINNER         CLOUDY    60  53  77 SE9       29.85F
YANKTON        CLOUDY    64  57  77 SE7       29.91F
$$

MNZ071-072-080-081-089-090-097-098-060800-
SOUTHWEST MINNESOTA

CITY           SKY/WX    TMP DP  RH WIND       PRES   REMARKS
FAIRMONT       CLOUDY    55  52  88 SE16      30.05F VSB 3/4
JACKSON        FOG       57  55  94 SE14      30.04F VSB 1/2
LUVERNE        CLOUDY    61  59  94 SE12      29.99F FOG
MARSHALL       CLOUDY    57  52  82 SE15      30.02S
MONTEVIDEO     CLOUDY    57  54  88 S15       30.04S
REDWOOD FALLS  CLOUDY    56  54  93 SE14      30.05S FOG
TRACY          CLOUDY    57  56  95 SE12      30.03F FOG
WORTHINGTON    CLOUDY    57  55  94 SE15      30.02F VSB 1/2
$$

IAZ001>003-012>014-020>022-031-032-NEZ013-014-SDZ071-060800-
NORTHWEST IOWA

CITY           SKY/WX    TMP DP  RH WIND       PRES   REMARKS
DENISON        CLOUDY    64  61  88 SE12      29.97F
ESTHERVILLE    FOG       57  57 100 SE14      30.04F VSB 1/4
SIOUX CITY     CLOUDY    67  56  67 SE14      29.95F
SPENCER        FOG       61  32  33 SE17      30.02F VSB 1/2
$$

ABBREVIATIONS USED IN REMARKS
   TC - TEMPERATURE IN CELSIUS
  WCI - WIND CHILL INDEX
   HX - HEAT INDEX
  VSB - VISIBILITY



USA.gov is the U.S. government's official web portal to all federal, state and local government web resources and services.